Helicity
121 122 201 237 192 292 289 200 222 184 151 186 210 199 190 177 148 152 132 128 125 136 154 155 142 144 135 126 124 113 88 66 38 32 31 36 34 40
146 165 202 240 195 193 249 151 150 167 151 206 225 190 161 160 148 146 146 140 121 109 130 148 156 153 135 132 124 112 83 49 33 37 36 32 40 43
121 149 136 147 150 178 179 148 188 232 220 223 227 179 198 198 183 177 168 141 132 108 114 136 140 142 141 126 105 100 62 34 34 48 28 34 47 68
86 123 134 161 163 196 201 194 186 215 273 260 264 239 218 198 188 180 160 152 140 126 129 139 134 124 133 103 88 75 43 36 42 32 39 55 58 86
106 103 103 143 158 189 168 239 246 212 300 341 222 247 269 240 244 200 168 162 147 138 139 145 126 112 108 95 93 49 48 47 37 33 36 69 82 100
112 114 111 114 116 134 211 255 319 247 314 389 232 325 250 194 229 212 171 156 140 161 138 136 133 129 115 115 87 55 50 39 39 37 51 91 97 80
120 118 129 139 138 156 196 177 209 212 291 343 228 345 325 232 204 196 160 155 130 154 165 156 160 133 110 117 80 52 45 43 41 55 78 102 85 73
184 190 185 175 165 143 145 159 168 233 212 306 305 242 312 326 216 212 210 203 159 144 177 148 139 116 110 89 62 58 47 51 62 81 97 108 122 110
148 152 165 188 190 200 171 149 146 118 153 231 192 185 245 229 219 231 251 224 182 156 195 133 116 111 99 76 66 60 59 46 63 92 122 116 129 148
181 179 174 164 174 175 173 194 225 177 157 207 163 181 140 154 179 221 215 214 207 178 161 135 119 124 99 81 58 61 63 61 68 88 109 111 127 141
169 160 167 167 157 134 205 208 208 203 248 241 201 160 93 106 181 254 248 236 189 157 150 127 122 128 101 86 74 66 58 55 68 92 104 104 103 142
146 144 125 138 121 80 134 159 195 159 173 184 174 179 137 157 109 176 208 202 207 162 128 151 155 136 126 90 96 77 68 64 75 85 99 105 111 92
154 141 124 105 109 96 49 149 141 161 137 215 244 248 221 187 197 187 163 203 206 170 123 190 154 155 130 119 103 69 65 65 65 62 69 87 111 90
172 132 88 74 105 81 105 73 78 116 179 198 215 221 229 217 231 228 177 199 188 159 132 144 135 135 141 143 104 87 72 52 41 35 46 68 86 97
128 101 117 79 90 110 65 66 66 194 193 211 204 213 231 222 281 308 274 247 233 223 188 150 129 118 122 118 97 97 74 44 48 40 57 66 66 74
92 78 79 88 65 119 114 98 193 240 246 194 215 241 254 240 273 288 314 215 218 221 189 151 134 123 124 121 116 106 76 63 53 55 45 37 36 60
64 63 62 65 45 101 166 154 169 189 235 250 240 234 234 227 245 287 296 266 233 236 180 178 162 135 116 121 132 121 95 93 74 68 65 51 41 42
33 27 39 58 73 75 124 147 212 152 236 268 237 201 240 239 249 252 310 298 253 209 155 164 185 191 171 143 109 135 115 109 88 72 64 55 52 49
31 4 18 53 84 97 109 143 169 187 214 245 244 222 234 243 216 259 271 273 200 138 147 162 156 173 176 135 144 102 133 125 112 96 74 66 55 46
27 19 16 37 48 55 93 132 147 164 188 204 210 223 232 258 240 225 216 207 163 150 171 150 131 132 136 132 133 148 105 143 124 118 111 82 53 39
19 16 26 31 29 52 81 130 150 165 172 180 202 233 255 256 235 212 187 153 156 179 146 106 88 110 162 175 186 184 159 109 123 131 118 131 104 64
21 8 17 24 32 33 60 101 138 154 175 192 208 227 262 254 241 207 189 167 150 149 142 149 159 191 186 169 175 179 190 175 121 132 110 92 74 41
15 12 14 13 24 26 41 74 116 136 162 191 222 225 245 224 191 170 167 163 168 188 185 198 175 200 169 175 194 194 196 187 184 152 124 54 51 81
Wind_Speed
68 69 67 68 58 55 54 46 51 54 53 52 46 38 43 44 44 43 42 44 43 42 43 43 44 43 45 50 52 55 58 58 57 55 54 58 58 62
68 66 61 54 53 49 42 37 38 45 56 45 42 39 39 46 43 43 42 41 42 42 41 39 40 42 44 48 52 55 56 57 58 53 55 58 61 66
46 44 52 47 42 43 46 48 50 49 53 49 41 38 37 39 43 43 42 43 43 44 40 40 39 39 44 47 49 52 54 57 57 56 56 58 64 70
54 56 58 61 60 57 55 59 54 51 53 49 43 45 43 41 42 46 48 47 43 41 39 37 38 41 44 46 50 51 52 54 55 53 55 58 62 67
68 69 70 66 67 65 65 63 62 60 56 55 54 50 50 49 50 51 50 48 46 39 39 39 40 39 43 47 46 49 50 50 49 53 53 57 62 64
68 67 67 68 71 69 65 69 64 52 53 54 56 56 53 50 51 56 56 50 50 44 43 42 40 38 41 42 44 47 46 47 49 51 49 58 58 59
67 69 68 65 63 60 62 62 61 65 62 57 57 61 51 53 48 51 56 54 54 47 44 42 41 40 40 39 39 42 43 45 47 47 46 51 54 53
76 76 74 73 70 65 61 59 58 62 64 65 67 66 55 57 49 46 46 50 53 43 43 42 37 37 36 36 36 37 39 44 48 46 44 47 50 51
75 75 77 73 71 68 67 65 63 62 64 64 67 66 56 51 43 42 44 42 43 41 33 42 36 37 33 32 33 33 36 40 43 44 43 44 46 48
77 74 74 76 73 71 69 69 69 65 65 61 62 61 62 54 52 48 42 39 37 38 33 42 33 33 30 28 31 30 32 35 39 41 42 41 42 43
79 77 77 80 80 77 75 74 72 71 64 67 67 64 60 52 45 41 41 41 41 38 30 37 35 33 31 29 26 28 29 31 35 38 40 40 38 38
81 84 82 81 78 71 70 73 82 79 68 61 62 53 54 50 44 42 40 43 41 40 33 32 32 30 35 29 24 24 26 29 31 36 38 38 37 35
83 80 74 72 72 70 68 72 74 70 65 64 64 62 55 48 46 44 41 38 39 41 30 25 30 27 31 30 25 22 23 26 29 33 35 35 35 33
81 77 81 84 81 76 71 66 67 63 60 62 63 62 57 51 47 42 42 41 40 40 25 24 30 25 27 27 27 21 22 24 27 30 33 33 32 32
76 77 90 89 77 73 66 61 51 53 56 57 62 64 58 50 42 40 38 35 36 35 29 31 27 23 24 27 25 21 19 21 24 26 29 30 31 32
80 82 86 87 81 69 65 55 48 49 52 55 57 56 51 48 49 43 42 36 37 36 35 32 27 23 25 27 24 16 18 22 19 24 27 29 30 31
90 85 84 79 75 66 59 55 48 46 56 55 49 51 50 50 54 49 48 42 41 34 34 32 28 27 29 23 24 18 14 22 19 22 28 31 33 33
84 83 81 75 69 62 55 51 46 45 53 54 58 62 47 48 49 51 50 51 46 38 35 32 26 25 30 34 29 17 19 23 22 23 27 31 35 36
76 78 78 72 63 54 51 49 55 59 64 58 52 53 51 44 39 42 48 50 47 42 34 27 21 21 23 30 29 25 20 25 21 27 29 33 33 33
73 75 76 73 66 59 53 45 52 61 62 58 57 54 49 36 35 36 44 50 42 40 36 25 22 22 23 32 30 27 25 23 23 26 31 35 38 40
75 75 74 73 73 69 64 57 60 58 58 57 55 49 48 42 40 39 37 48 48 39 31 26 23 24 33 31 34 33 33 30 27 26 29 35 41 44
75 75 75 74 73 72 71 64 60 55 50 48 53 48 38 40 38 37 37 44 39 39 32 24 20 24 32 37 36 33 34 31 33 30 33 36 40 45
75 75 76 75 73 71 70 67 60 53 46 40 38 38 35 34 33 31 33 42 31 28 24 21 20 28 35 36 34 34 37 37 38 37 43 42 41 38
Wind_Direction
288 289 288 289 285 286 291 288 289 289 282 285 291 290 289 294 300 308 312 315 320 321 323 325 326 331 333 333 335 337 339 341 342 342 341 337 333 326
288 292 295 284 282 286 287 284 282 285 289 290 288 290 288 290 298 304 308 314 317 319 321 325 326 330 333 333 334 337 339 341 341 343 341 337 331 325
292 293 294 290 282 283 283 285 284 282 282 286 287 288 288 291 296 301 306 309 311 314 318 321 324 328 329 331 334 338 340 340 341 342 341 337 329 321
295 293 291 290 284 284 282 280 278 278 281 281 283 286 290 290 294 296 300 305 310 314 315 319 321 322 326 329 332 336 340 341 341 343 341 338 332 322
296 295 294 292 289 287 286 287 280 278 278 281 281 285 291 289 291 296 299 301 307 311 314 316 318 320 323 326 331 334 338 340 342 339 340 340 334 323
300 298 295 293 292 290 287 283 284 279 282 284 278 284 290 292 289 291 294 299 302 307 309 311 313 316 320 325 329 332 337 338 340 339 341 336 334 325
303 300 298 295 292 290 288 285 282 280 281 284 281 285 286 289 289 295 295 299 298 303 306 308 310 314 317 322 328 331 336 337 339 340 341 336 332 324
303 301 299 296 292 289 284 283 281 277 279 280 278 283 285 287 292 294 298 299 301 305 303 305 308 309 315 321 326 330 335 335 336 338 338 331 325 325
304 302 299 297 294 290 287 282 279 278 278 276 277 279 286 283 288 292 295 298 303 311 309 307 307 307 314 321 325 329 335 336 337 336 333 328 321 326
304 301 298 296 293 289 286 282 280 277 276 277 276 281 285 285 284 288 289 296 307 308 306 303 308 308 313 318 322 330 335 338 338 336 331 324 324 327
305 301 297 295 292 289 285 280 279 277 277 277 277 280 282 284 283 286 286 290 294 298 295 300 303 307 310 313 320 327 334 338 340 333 329 324 322 323
306 301 297 294 292 290 285 281 277 276 275 278 277 279 279 281 279 280 281 282 288 294 291 291 296 304 305 313 317 323 330 335 336 328 325 325 323 317
310 306 302 298 294 290 284 282 278 278 277 274 274 274 277 277 278 279 279 276 277 288 300 288 294 295 302 314 316 318 329 332 329 321 319 322 323 317
311 310 302 294 291 289 286 281 280 280 277 274 272 272 272 273 274 274 276 278 282 287 281 284 295 289 291 303 309 318 326 329 327 319 313 315 317 312
314 308 299 295 292 288 288 284 281 278 277 275 271 270 271 272 271 273 276 278 283 285 280 281 281 286 290 294 303 319 327 327 324 323 316 311 311 305
316 307 299 293 292 290 287 289 280 277 278 274 273 272 271 270 267 268 269 269 273 275 278 278 276 279 283 286 297 312 319 322 320 318 317 313 313 309
311 305 298 294 293 292 288 286 285 279 274 275 274 272 269 267 265 266 267 262 269 267 268 271 273 276 279 278 286 299 307 306 319 319 314 311 306 304
312 304 298 296 295 295 291 286 282 277 277 276 271 267 270 263 263 262 265 263 263 267 261 262 260 267 274 277 281 286 293 297 307 313 315 310 303 303
314 307 301 299 298 298 293 289 281 277 271 272 275 266 263 263 262 263 261 260 259 260 260 258 250 256 257 263 279 279 287 290 300 301 309 308 306 307
313 308 305 302 299 297 294 291 285 276 270 270 265 264 261 263 265 266 259 254 253 257 259 256 249 249 257 266 275 280 280 288 294 298 299 301 301 299
310 306 306 302 295 290 289 288 280 276 272 268 266 265 262 259 263 263 259 251 250 255 255 253 253 259 267 273 274 279 280 284 294 295 299 301 296 293
306 303 302 300 293 285 278 281 280 278 273 270 264 262 260 256 258 258 256 247 250 255 259 259 255 258 261 265 270 278 281 285 288 298 296 298 297 292
303 299 298 296 288 282 276 275 278 277 274 271 266 260 254 254 253 252 248 247 249 251 251 254 252 260 263 265 271 278 280 282 282 288 288 292 295 298